IOR-W (EGNOS/PRN 126)

Last updated on Mon Apr 28 2025 00:03:18 GMT+0000 (Coordinated Universal Time)

1 28899U 05044A 25117.14747488 -.00000257 00000+0 00000+0 0 9991 2 28899 4.5614 43.3629 0002848 8.4863 0.1246 1.00272190 71357
UTC large
Height (km)
Speed (km/s)
/
Latitude / Longitude
Inclination (degrees)
Orbital Period (minutes)
Azimuth
Elevation
Range (km)
Doppler Factor

Next 0 passes for location: London (51.5072 / 0.1276)

Sorry there are no passes over London.
IOR-W (EGNOS/PRN 126)